www.pogodaiklimat.ru

Погода и климат >> Архив погоды >> Аргентина >> Villa Reynolds


ПОГОДА в Villa Reynolds

  • Прогноз погоды в Villa Reynolds
  • Монитор погоды в Villa Reynolds
  • Климат города

АРХИВ ПОГОДЫ в Villa Reynolds

Время (UTC), дата Ветер
(напр.,м/с)
 
Видим.   Явления Облачность Т
(С)
Тd
(С)
f
(%)
Тe
(С)
Тes
(С)
Комфортность P
(гПа)
Po
(гПа)
Тmin
(С)
Tmax
(С)
R
(мм)
R24
(мм)
S
(см)
18 13.08 З 8 15 км 4/0
[Ac As Ci sp]
+21.0 -1.1 23 +21 +22 комфорт 1009.2 952.0
21 13.08 СЗ 4 15 км 6/0
[Ac As]
+19.5 0.0 27 +20 +20 1009.5 952.2
00 14.08 Ю 1 15 км 3/0
[Ac As]
+7.8 +1.9 66 +7 +7 1013.5 955.0 +0.7 +21.5
03 14.08 штиль 0 15 км ясно +6.2 +1.4 71 +6 +6 1013.5 956.6
06 14.08 СЗ 3 15 км ясно +2.2 +0.1 86 -2 -2 1014.0 957.0
09 14.08 штиль 0 15 км ясно +1.0 -1.2 85 -0 -0 1014.3 957.0
12 14.08 СЗ 3 15 км ясно +4.4 -2.1 63 +2 +2 1016.9 958.6 -1.2 +7.9
15 14.08 СВ 8 15 км 3/3 900 м
[Sc Ac As]
+17.8 -0.7 29 +17 +18 1016.2 959.0
18 14.08 штиль 0 50 км ?/? +20.6 +0.3 26 +20 +20 1014.7 957.6
21 14.08 З 8 15 км ясно +18.0 -4.4 21 +17 +17 1015.4 957.8
00 15.08 С 3 15 км ясно +9.0 -0.9 50 +7 +7 1016.9 958.6 +4.2 +21.1
03 15.08 штиль 0 10 км ясно +4.0 -1.3 68 +3 +3 1016.3 959.0
06 15.08 штиль 0 10 км ясно +1.0 -1.8 82 0 0 1015.6 958.2
09 15.08 штиль 0 10 км ясно +0.6 -0.5 92 -1 -1 1015.1 957.4
12 15.08 СЗ 2 10 км 4/0
[Cs]
+3.7 -0.8 72 +2 +3 1016.5 958.2 -0.4 +9.1
15 15.08 ЮВ 2 15 км 9/1 900 м
[Sc Ac As Cs]
+19.4 -1.6 24 +21 +26 комфорт 1015.9 958.8
18 15.08 ЮВ 7 15 км 4/1 900 м
[Sc Ac As]
+21.4 -1.1 22 +21 +23 комфорт 1016.1 958.9
21 15.08 В 6 12 км 3/0
[Cs]
+16.8 +2.2 37 +16 +16 1020.6 962.6
00 16.08 СВ 3 10 км 3/0
[Cs]
+7.2 +2.0 70 +5 +5 1025.0 966.1 +3.7 +21.6
03 16.08 СЗ 1 15 км ясно +3.2 +1.2 87 +2 +2 1025.4 967.7
06 16.08 штиль 0 15 км ясно -0.6 -1.7 92 -2 -2 1026.4 968.4
09 16.08 С 2 15 км ясно -3.2 -3.8 96 -7 -7 1026.2 967.4
12 16.08 С 2 15 км ясно +0.2 -2.6 81 -3 -2 1027.3 967.8 -4.4 +7.3
15 16.08 С 5 15 км ясно +18.6 +0.1 29 +18 +23 1024.4 966.6
18 16.08 СЗ 3 15 км ясно +22.8 -3.4 17 +21 +28 комфорт 1019.1 961.7
21 16.08 В 3 15 км 3/0
[Cs]
+21.4 +2.8 29 +21 +22 комфорт 1017.5 959.8
00 17.08 З 3 15 км ясно +9.9 +1.3 55 +8 +8 1018.2 960.2
03 17.08 З 4 10 км ясно +11.8 +1.3 49 +10 +10 1016.5 960.0
06 17.08 СЗ 9 10 км ясно +16.0 +3.9 44 +14 +14 1013.9 958.2
09 17.08 СЗ 4 10 км ясно +15.4 +5.7 52 +15 +15 1013.7 958.0
12 17.08 СЗ 4 10 км 3/0
[Ci sp]
+14.8 +5.4 53 +14 +14 1016.2 959.3 +9.6 +17.6
15 17.08 З 3 10 км 8/0
[Ci sp]
+24.2 +7.2 34 +24 +31 комфорт 1014.6 958.6
18 17.08 СЗ 3 10 км 8/0
[Ci sp]
+27.4 +5.8 25 +26 +32 жарко 1011.0 956.0
21 17.08 С 4 10 км 8/0
[Cs]
+24.1 +7.3 34 +24 +25 комфорт 1010.5 955.2
00 18.08 СВ 3 10 км 5/0
[Cs]
+16.0 +7.9 59 +16 +16 1011.7 955.4 +14.4 +27.7
03 18.08 С 3 10 км ясно +10.9 +5.4 69 +9 +9 1009.1 953.4
06 18.08 С 3 10 км ясно +6.6 +2.9 77 +4 +4 1006.2 950.6
09 18.08 С 4 10 км ясно +10.0 +2.8 61 +8 +8 1003.4 948.0
12 18.08 СВ 5 10 км 6/0
[Cs]
+18.6 +8.1 50 +19 +19 1003.3 947.8 +6.1 +18.6
15 18.08 СЗ 8 5000 м пыльный позёмок 8/0
[Cs]
+23.8 +6.5 33 +24 +26 комфорт 1002.7 947.4
18 18.08 З 3 10 км 8/0
[Cs]
+27.8 +8.2 29 +28 +33 жарко 1000.4 945.2
21 18.08 В 8 10 км 8/0
[Cs]
+25.0 +6.3 30 +25 +25 комфорт 1001.6 946.4
00 19.08 В 4 10 км 5/0
[Ac As Cs]
+15.8 +8.6 62 +15 +15 1007.4 951.8 +15.8 +28.4
03 19.08 В 3 10 км 9/0
[Ac As Cs]
+13.9 +5.5 57 +13 +13 1009.7 954.2
06 19.08 штиль 0 10 км 8/0
[Ac As]
+10.0 +6.5 79 +9 +9 1010.6 955.0
09 19.08 СВ 1 8000 м слабая морось 10/4 360 м
[Sc As op]
+10.0 +7.8 86 +9 +9 1011.3 955.4
12 19.08 штиль 0 10 км {морось} 6/0
[Ac As Cs]
+9.8 +5.8 76 +9 +10 1014.4 957.6 +7.9 +15.9 0.0
15 19.08 В 5 15 км 3/0
[Cs]
+18.0 +5.2 43 +18 +22 1015.5 959.2
18 19.08 С 3 15 км 3/1 750 м
[Sc Ac As]
+18.7 +0.3 29 +19 +25 1014.5 958.0
21 19.08 С 6 15 км ясно +17.4 +1.3 34 1014.9 959.2
00 20.08 В 2 15 км ясно +8.1 +0.9 60 +7 +7 1019.8 961.8 +8.1 +19.6
03 20.08 штиль 0 10 км ясно +3.4 -0.2 77 +3 +3 1022.7 965.0
06 20.08 СЗ 2 10 км ясно +2.2 +1.2 93 -1 -1 1024.9 967.0
09 20.08 штиль 0 10 км ясно +1.2 -1.6 82 0 0 1027.8 969.4
12 20.08 штиль 0 10 км ясно -0.6 -1.2 96 -2 -0 1032.0 972.4 -3.4 +8.1

 

Местоположение метеостанции Villa Reynolds (Аргентина): широта -33.73 долгота -65.38 высота над уровнем моря 486 м.

В архиве по умолчанию представлена погода в Villa Reynolds за последнюю неделю. Архивные данные за месяц целиком и за предыдущие месяцы, начиная с января 2011 года, Вы можете получить, выбрав интересующий диапазон дат из раскрывающегося списка и нажав кнопку "Ввод!".

Внимание! Время в таблицах - всемирное. Для получения местного времени необходимо прибавить поправку, которая в Villa Reynolds равна -3 ч.

Смотрите также архив погоды в соседних городах и на ближайших метеорологических станциях:

Погода в San Luis (Аргентина) (104 км)
Погода в Rio Cuarto (Аргентина) (125 км)
Погода в Laboulaye (Аргентина) (192 км)
Погода в Villa Dolores (Аргентина) (199 км)
Погода в General Pico (Аргентина) (265 км)
Погода в Pilar (Аргентина) (270 км)
Погода в San Martin (Аргентина) (290 км)
Погода в Cordoba (Аргентина) (291 км)
Погода в San Rafael (Аргентина) (294 км)
Погода в Marcos Juarez (Аргентина) (322 км)

Пояснения к столбцам:

Ветер - указаны скорость ветра в м/с - средняя за 10 мин, порывы в срок и между сроками (в фигурных скобках) и направление, откуда дует ветер: С - северный, СВ - северо-восточный, В - восточный, ЮВ - юго-восточный, Ю - южный, ЮЗ - юго-западный, З - западный, СЗ - северо-западный.
Видимость - горизонтальная дальность видимости в метрах или километрах. При видимости от 1 до 10 км при отсутствии осадков обычно наблюдается дымка, при ухудшении видимости до 1 км и менее - туман. В сухую погоду видимость может ухудшаться дымом, пылью или мглою.
Явления - указаны атмосферные явления, наблюдавшиеся в срок или в последний час перед сроком; фигурными скобками обозначены явления, наблюдавшиеся между сроками (за 1-3 часа до срока); квадратными скобками обозначены град или гололедные отложения с указанием их диаметра в мм.
Облачность - указаны через наклонную черту общая и нижняя облачность в баллах и высота нижней границы облаков в метрах; квадратными скобками обозначены формы облаков: Ci - перистые, Cs - перисто-слоистые, Cc - перисто-кучевые, Ac - высококучевые, As - высокослоистые, Sc - слоисто-кучевые, Ns - слоисто-дождевые, Cu - кучевые, Cb - кучево-дождевые. Подробнее классификацию облаков см. в Атласе облаков (PDF).
T - Температура воздуха - температура, измеренная на высоте 2 м над землей.
Td - Температура точки росы - температура, при понижении до которой содержащийся в воздухе водяной пар достигнет насыщения.
f - Относительная влажность воздуха - влажноcть воздуха, измеренная на высоте 2 м над землей.
Te - Эффективная температура - температура, которую ощущает одетый по сезону человек в тени. Характеристика душности погоды. При расчете учитывается влияние влажности воздуха и скорости ветра на теплоощущения человека.
Tes - Эффективная температура на солнце - температура, которую ощущает человек, с поправкой на солнечный нагрев. Характеристика знойности погоды. Зависит от высоты солнца над горизонтом, облачности и скорости ветра. Ночью, в пасмурную погоду, а также при ветре 12 м/с и более поправка равна нулю.
P - Атмосферное давление - приведенное к уровню моря атмосферное давление.
Po - Атмосферное давление - измеренное на уровне метеостанции атмосферное давление.
Tmin - Минимальная температура - минимум температуры воздуха на высоте 2 м над землей.
Tmax - Максимальная температура - максимум температуры воздуха на высоте 2 м над землей.
R - Количество осадков - Количество выпавших осадков за период времени, мм. При наведении курсора мыши на число - период времени, за который выпало указанное количество осадков.
R24 - Количество осадков - Количество выпавших осадков за 24 часа, мм.
S - Снежный покров - Высота снежного покрова, см. При наведении курсора мыши на число - состояние снежного покрова и степень покрытия местности в баллах.